Regional Weather Roundup
Issued by NWS

Home | Current Version | Previous Version | Graphics & Text | Print | Product List | Glossary On
Versions: 1 2 3 4 5 6 7 8 9 10 11 12 13 14 15 16 17 18 19 20 21 22 23 24 25 26 27 28 29 30 31 32 33 34 35 36 37 38 39 40 41 42 43 44 45 46 47 48 49 50
000
ASUS43 KMKX 030400
RWRWI

WISCONSIN REGIONAL WEATHER ROUNDUP
NATIONAL WEATHER SERVICE MILWAUKEE/SULLIVAN WI
1100 PM CDT SAT MAY 02 2015

NOTE: "FAIR" INDICATES FEW OR NO CLOUDS BELOW 12,000 FEET WITH NO
SIGNIFICANT WEATHER AND/OR OBSTRUCTIONS TO VISIBILITY.

WIZ001-002-006>008-014>016-023>028-030500-
NORTHWEST WISCONSIN

CITY           SKY/WX    TMP DP  RH WIND       PRES   REMARKS
SUPERIOR ARPT  MOCLDY    41  40  95 CALM      29.76F
ASHLAND        MOCLDY    50  44  80 S3        29.76F
HAYWARD        FAIR      56  45  66 SW3       29.77F
SIREN          PTCLDY    64  42  45 S5        29.76F
CUMBERLAND     PTCLDY    59  39  47 SE5       29.79S
RICE LAKE      MOCLDY    60  42  50 SE7       29.81S
CHETEK         PTCLDY    63  48  56 S7        29.80R
LADYSMITH      PTCLDY    65  45  47 S7        29.83S
EAU CLAIRE     NOT AVBL
MENOMONIE      PTCLDY    70  47  44 S12G17    29.81R
NEW RICHMOND   CLEAR     67  46  46 S9        29.79S
OSCEOLA        CLEAR     63  43  49 S7        29.79S
$$

WIZ003>005-009-010-017-018-030500-
NORTH CENTRAL WISCONSIN

CITY           SKY/WX    TMP DP  RH WIND       PRES   REMARKS
MANITOWISH WTR MOCLDY    53  45  73 S5        29.82S
ARBOR VITAE    PTCLDY    59  43  54 S3        29.84R
WOODRUFF       PTCLDY    59  43  54 S3        29.84R
RHINELANDER    CLEAR     64  41  42 SW9       29.86R
EAGLE RIVER    CLEAR     51  41  67 CALM      29.84S
LAND O LAKES   PTCLDY    49  43  81 CALM      29.85R
PHILLIPS       PTCLDY    63  44  49 S8        29.82S
TOMAHAWK       CLEAR     57  41  55 CALM      29.85S
MEDFORD        PTCLDY    62  45  53 S13       29.85S
MERRILL        PTCLDY    65  44  45 SW7       29.86R
$$

WIZ029-030-035-036-043>047-030500-
CENTRAL WISCONSIN

CITY           SKY/WX    TMP DP  RH WIND       PRES   REMARKS
WAUSAU         CLEAR     64  43  46 SW8       29.85R
MOSINEE        CLEAR     59  43  55 S7        29.88
MARSHFIELD     CLEAR     65  48  54 S12       29.87R
STEVENS POINT  CLEAR     62  41  45 S9        29.88R
WAUPACA        CLEAR     63  41  44 S6        29.88S
WAUTOMA        NOT AVBL
WISC RAPIDS    CLEAR     63  42  46 S7        29.89R
CAMP DOUGLAS   NOT AVBL
$$

WIZ011>013-019>022-031-037>040-048>050-030500-
NORTHEAST WISCONSIN

CITY           SKY/WX    TMP DP  RH WIND       PRES   REMARKS
ANTIGO         CLEAR     56  42  58 S7        29.87S
SHAWANO        CLEAR     66  42  40 CALM      29.87S
OCONTO         PTCLDY    58  46  64 SE6       29.86S
STURGEON BAY   CLEAR     57  36  44 S13       29.89F
GREEN BAY      CLEAR     60  44  55 S8        29.88S
MANITOWOC      NOT AVBL
APPLETON       PTCLDY    61  41  48 SW10      29.89S
CLINTONVILLE   CLEAR     61  41  48 SW7       29.87S
OSHKOSH        CLEAR     62  43  49 S9        29.89F
$$

WIZ032>034-041-042-053>061-030500-
SOUTHWEST WISCONSIN

CITY           SKY/WX    TMP DP  RH WIND       PRES   REMARKS
LA CROSSE      CLEAR     67  50  54 S9        29.86R
SPARTA         CLEAR     64  47  53 S5        29.90R
VIROQUA        CLEAR     61  48  62 S10       29.90S
BOSCOBEL       CLEAR     63  48  58 S5        29.91S
PRAIRIE DU CHI CLEAR     64  48  56 CALM      29.90S
PLATTEVILLE    PTCLDY    58  48  71 S8        29.93S
$$

WIZ056-057-062-063-064-067-068-030500-
SOUTH CENTRAL WISCONSIN

CITY           SKY/WX    TMP DP  RH WIND       PRES   REMARKS
REEDSBURG      CLEAR     62  48  60 S6        29.90S
BARABOO/DELLS  NOT AVBL
LONE ROCK      NOT AVBL
MINERAL POINT  CLEAR     61  46  59 S6        29.93S
MADISON        MOCLDY    66  43  43 SW5       29.92F
MIDDLETON      CLEAR     64  40  42 SW5       29.93S
WATERTOWN      CLEAR     56  44  62 CALM      29.93R
MONROE         PTCLDY    61  46  59 SW12      29.94S
JANESVILLE     PTCLDY    63  37  39 CALM      29.93F
$$

WIZ051-052-058>065-066-070>072-030500-
SOUTHEAST WISCONSIN

CITY           SKY/WX    TMP DP  RH WIND       PRES   REMARKS
MILWAUKEE      MOCLDY    59  38  45 S7        29.94S
WAUKESHA       PTCLDY    63  37  39 S5        29.95S
MILWAUKEE/TIMM MOCLDY    61  36  39 S5        29.94S
RACINE         PTCLDY    54  39  57 S3        29.96S
BURLINGTON     PTCLDY    56  39  54 SW3       29.95R
KENOSHA        PTCLDY    57  41  55 S6        29.95S
FOND DU LAC    CLEAR     62  42  47 SW6       29.91S
SHEBOYGAN      PTCLDY    51  39  63 S5        29.92S
WEST BEND      MOCLDY    59  39  47 CALM      29.93S
JUNEAU         PTCLDY    60  43  52 S6        29.94R
$$

LSZ147-162-030500-
LAKE SUPERIOR

STATION/POSITION TIME  TEMP    WIND        PRES    WAVE
                       AIR SEA DIR/SP/G            HT/PER
                 (UTC) (F)     (DEG/KT/KT) (MB)    (FT/S)
W MID LAKE BUOY  0250   46 35  140/ 12/ 14 1008.1R   1
DEVILS ISLAND    0300           20/  7/  8 1008.6R
PORT WING        0300   41     290/  3/  3 1008.5
SAXON HARBOR     0300   56        CALM     1007.8R
$$

LMZ867-665-643>646-030500-
LAKE MICHIGAN

STATION/POSITION TIME  TEMP    WIND        PRES    WAVE
                       AIR SEA DIR/SP/G            HT/PER
                 (UTC) (F)     (DEG/KT/KT) (MB)    (FT/S)
CHAMBERS ISLAND  0300   60     160/  9/ 18 1011.2S
NORTHPORT PIER   0300   58     190/  7/ 23 1011.2S
SISTER BAY       0317   60     160/ 19/ 22   N/A
KEWAUNEE LAKESHO 0300          180/ 14/ 16   N/A
SHEBOYGAN LAKESH 0300   49     180/ 15/ 15 1013.6R
PORT WASHINGTON  0340   50     170/  1/  2 1013.9F
ATWATER BUOY     0300   49     170/  8/  8 1015.0R
MILWAUKEE LAKESH 0300   59     170/  4/  5   N/A
KENOSHA   LAKESH 0300   53     180/  8/  9 1014.2S
$$

TC  - TEMPERATURE IN CELSIUS
VSB - VISIBILITY IN STATUTE MILES
WCI - WIND CHILL INDEX
HX  - HEAT INDEX




USA.gov is the U.S. government's official web portal to all federal, state and local government web resources and services.